FAD121 OEMA-OEJN

Flight info

Callsign FAD121
Flight time 0h 47m
Altitude 24000
Route SISUD B544 NOMDA
Aircraft A320/M-SDE3FGHIRWY/LB1

Departure

Time 2026-04-27 22:02
Airport Prince Mohammad Bin Abdulaziz Airport (OEMA)

Arrival

Time 2026-04-27 22:49
Airport King Abdulaziz International Airport (OEJN)
Time Latitude Longitude Altitude Speed Heading
2026-04-27 20:58 24.54973 39.71366 2088 ft 0 kts 78°
2026-04-27 21:47 24.54973 39.71363 2088 ft 1 kts 78°
2026-04-27 21:48 24.54969 39.71345 2088 ft 3 kts 78°
2026-04-27 21:48 24.54966 39.71326 2087 ft 3 kts 84°
2026-04-27 21:48 24.54967 39.71306 2087 ft 3 kts 118°
2026-04-27 21:48 24.54978 39.71290 2088 ft 3 kts 152°
2026-04-27 21:49 24.54995 39.71283 2088 ft 2 kts 168°
2026-04-27 21:49 24.55002 39.71281 2088 ft 0 kts 169°
2026-04-27 21:52 24.54998 39.71282 2088 ft 4 kts 169°
2026-04-27 21:53 24.54972 39.71288 2087 ft 2 kts 168°
2026-04-27 21:53 24.54916 39.71298 2086 ft 10 kts 171°
2026-04-27 21:53 24.54858 39.71266 2085 ft 10 kts 243°
2026-04-27 21:53 24.54845 39.71206 2085 ft 0 kts 257°
2026-04-27 21:54 24.54844 39.71205 2084 ft 2 kts 257°
2026-04-27 21:54 24.54835 39.71114 2084 ft 13 kts 263°
2026-04-27 21:54 24.54866 39.71107 2085 ft 6 kts 12°
2026-04-27 21:54 24.54912 39.71104 2086 ft 9 kts 352°
2026-04-27 21:55 24.54959 39.71096 2086 ft 11 kts 350°
2026-04-27 21:55 24.55045 39.71078 2088 ft 14 kts 348°
2026-04-27 21:55 24.55184 39.71043 2091 ft 16 kts 336°
2026-04-27 21:55 24.55208 39.71020 2091 ft 0 kts 302°
2026-04-27 21:56 24.55208 39.71011 2091 ft 7 kts 279°
2026-04-27 21:56 24.55358 39.70846 2091 ft 26 kts 331°
2026-04-27 21:56 24.55551 39.70777 2094 ft 32 kts 349°
2026-04-27 21:57 24.55797 39.70725 2100 ft 40 kts 349°
2026-04-27 21:57 24.56096 39.70658 2109 ft 46 kts 343°
2026-04-27 21:57 24.56294 39.70485 2122 ft 19 kts 320°
2026-04-27 21:57 24.56301 39.70478 2123 ft 0 kts 320°
2026-04-27 21:59 24.56304 39.70475 2127 ft 5 kts 319°
2026-04-27 22:00 24.56334 39.70421 2131 ft 7 kts 271°
2026-04-27 22:00 24.56302 39.70392 2133 ft 0 kts 191°
2026-04-27 22:01 24.56301 39.70391 2133 ft 3 kts 191°
2026-04-27 22:01 24.56040 39.70373 2129 ft 77 kts 184°
2026-04-27 22:01 24.55273 39.70318 2106 ft 141 kts 184°
2026-04-27 22:01 24.54139 39.70246 2302 ft 172 kts 183°
2026-04-27 22:02 24.52958 39.70167 3106 ft 170 kts 185°
2026-04-27 22:02 24.51782 39.70081 3875 ft 171 kts 185°
2026-04-27 22:02 24.50565 39.69986 4264 ft 184 kts 186°
2026-04-27 22:02 24.49215 39.69881 4461 ft 206 kts 186°
2026-04-27 22:03 24.47703 39.69765 4631 ft 231 kts 186°
2026-04-27 22:03 24.46017 39.69635 4936 ft 254 kts 186°
2026-04-27 22:03 24.44183 39.69495 5386 ft 272 kts 187°
2026-04-27 22:03 24.42275 39.69357 6094 ft 278 kts 187°
2026-04-27 22:04 24.40330 39.69218 6865 ft 282 kts 188°
2026-04-27 22:04 24.38384 39.69080 7643 ft 285 kts 188°
2026-04-27 22:04 24.36365 39.68936 8428 ft 288 kts 188°
2026-04-27 22:04 24.34385 39.68798 9177 ft 290 kts 187°
2026-04-27 22:05 24.32364 39.68655 9933 ft 292 kts 187°
2026-04-27 22:05 24.30331 39.68381 10490 ft 301 kts 196°
2026-04-27 22:05 24.28290 39.67596 10657 ft 322 kts 205°
2026-04-27 22:05 24.26172 39.66584 10921 ft 339 kts 205°
2026-04-27 22:06 24.23986 39.65545 11517 ft 344 kts 205°
2026-04-27 22:06 24.21781 39.64501 12234 ft 347 kts 205°
2026-04-27 22:06 24.19562 39.63457 13010 ft 347 kts 205°
2026-04-27 22:06 24.17334 39.62415 13731 ft 349 kts 205°
2026-04-27 22:07 24.15092 39.61369 14386 ft 352 kts 205°
2026-04-27 22:07 24.12830 39.60314 15052 ft 355 kts 205°
2026-04-27 22:07 24.10551 39.59248 15700 ft 357 kts 205°
2026-04-27 22:07 24.08258 39.58175 16322 ft 360 kts 205°
2026-04-27 22:08 24.05950 39.57093 16923 ft 362 kts 206°
2026-04-27 22:08 24.03619 39.56000 17527 ft 365 kts 206°
2026-04-27 22:08 24.01277 39.54905 18104 ft 368 kts 206°
2026-04-27 22:08 23.98915 39.53801 18654 ft 371 kts 206°
2026-04-27 22:09 23.96567 39.52705 19212 ft 373 kts 206°
2026-04-27 22:09 23.94175 39.51590 19778 ft 374 kts 206°
2026-04-27 22:09 23.91778 39.50471 20323 ft 376 kts 206°
2026-04-27 22:09 23.89367 39.49346 20831 ft 378 kts 207°
2026-04-27 22:10 23.86941 39.48214 21301 ft 380 kts 207°
2026-04-27 22:10 23.84499 39.47079 21811 ft 381 kts 207°
2026-04-27 22:10 23.82056 39.45946 22290 ft 382 kts 207°
2026-04-27 22:10 23.79601 39.44804 22772 ft 384 kts 207°
2026-04-27 22:11 23.77141 39.43658 23226 ft 385 kts 207°
2026-04-27 22:11 23.74649 39.42552 23645 ft 390 kts 203°
2026-04-27 22:11 23.72057 39.41649 23871 ft 392 kts 202°
2026-04-27 22:11 23.69427 39.40741 23908 ft 400 kts 202°
2026-04-27 22:12 23.66753 39.39822 23915 ft 404 kts 202°
2026-04-27 22:12 23.64074 39.38902 23916 ft 403 kts 202°
2026-04-27 22:12 23.61401 39.37984 23917 ft 403 kts 202°
2026-04-27 22:12 23.58761 39.37073 23910 ft 403 kts 202°
2026-04-27 22:13 23.56089 39.36146 23916 ft 403 kts 202°
2026-04-27 22:13 23.53414 39.35222 23912 ft 404 kts 202°
2026-04-27 22:13 23.50733 39.34298 23906 ft 404 kts 202°
2026-04-27 22:13 23.48055 39.33375 23907 ft 404 kts 202°
2026-04-27 22:14 23.45378 39.32449 23906 ft 403 kts 202°
2026-04-27 22:14 23.42697 39.31521 23903 ft 403 kts 202°
2026-04-27 22:14 23.40023 39.30597 23901 ft 403 kts 202°
2026-04-27 22:14 23.37349 39.29674 23898 ft 403 kts 202°
2026-04-27 22:15 23.34677 39.28750 23896 ft 403 kts 202°
2026-04-27 22:15 23.32009 39.27829 23894 ft 403 kts 202°
2026-04-27 22:15 23.29338 39.26907 23893 ft 403 kts 202°
2026-04-27 22:15 23.26704 39.25999 23893 ft 403 kts 202°
2026-04-27 22:16 23.24030 39.25083 23892 ft 403 kts 202°
2026-04-27 22:16 23.21357 39.24170 23891 ft 403 kts 202°
2026-04-27 22:16 23.18683 39.23254 23892 ft 403 kts 202°
2026-04-27 22:16 23.16008 39.22336 23894 ft 403 kts 202°
2026-04-27 22:17 23.13330 39.21416 23893 ft 403 kts 202°
2026-04-27 22:17 23.10652 39.20495 23896 ft 403 kts 202°
2026-04-27 22:17 23.07980 39.19577 23897 ft 403 kts 202°
2026-04-27 22:17 23.05308 39.18658 23896 ft 403 kts 202°
2026-04-27 22:18 23.02633 39.17738 23895 ft 403 kts 202°
2026-04-27 22:18 22.99958 39.16819 23896 ft 403 kts 202°
2026-04-27 22:18 22.97280 39.15903 23896 ft 404 kts 202°
2026-04-27 22:18 22.94598 39.14986 23897 ft 404 kts 202°
2026-04-27 22:19 22.91920 39.14070 23899 ft 404 kts 202°
2026-04-27 22:19 22.89272 39.13163 23896 ft 404 kts 202°
2026-04-27 22:19 22.86583 39.12241 23890 ft 404 kts 202°
2026-04-27 22:19 22.83904 39.11324 23885 ft 404 kts 202°
2026-04-27 22:20 22.81218 39.10415 23879 ft 405 kts 200°
2026-04-27 22:20 22.78429 39.09847 23873 ft 412 kts 191°
2026-04-27 22:20 22.75542 39.09816 23868 ft 417 kts 185°
2026-04-27 22:20 22.72636 39.09912 23866 ft 417 kts 185°
2026-04-27 22:21 22.69730 39.10003 23865 ft 417 kts 185°
2026-04-27 22:21 22.66830 39.10092 23865 ft 417 kts 185°
2026-04-27 22:21 22.63932 39.10181 23864 ft 417 kts 185°
2026-04-27 22:21 22.61031 39.10271 23863 ft 417 kts 185°
2026-04-27 22:22 22.58165 39.10360 23863 ft 417 kts 185°
2026-04-27 22:22 22.55260 39.10460 23864 ft 419 kts 183°
2026-04-27 22:22 22.52354 39.10929 23862 ft 428 kts 173°
2026-04-27 22:22 22.49517 39.12015 23861 ft 439 kts 162°
2026-04-27 22:23 22.46851 39.13685 23859 ft 446 kts 155°
2026-04-27 22:23 22.44235 39.15493 23858 ft 446 kts 155°
2026-04-27 22:23 22.41623 39.17296 23863 ft 446 kts 155°
2026-04-27 22:23 22.39022 39.19084 23899 ft 438 kts 155°
2026-04-27 22:24 22.36462 39.20844 23906 ft 434 kts 155°
2026-04-27 22:24 22.33914 39.22590 23842 ft 434 kts 155°
2026-04-27 22:24 22.31360 39.24339 22810 ft 436 kts 155°
2026-04-27 22:24 22.28788 39.26100 21246 ft 439 kts 154°
2026-04-27 22:25 22.26210 39.27865 19969 ft 441 kts 154°
2026-04-27 22:25 22.23620 39.29638 19325 ft 437 kts 153°
2026-04-27 22:25 22.21068 39.31388 18721 ft 432 kts 153°
2026-04-27 22:25 22.18550 39.33114 18171 ft 425 kts 153°
2026-04-27 22:26 22.16070 39.34811 17649 ft 419 kts 153°
2026-04-27 22:26 22.13616 39.36489 17067 ft 415 kts 153°
2026-04-27 22:26 22.11227 39.38126 16524 ft 409 kts 153°
2026-04-27 22:26 22.08836 39.39762 15964 ft 405 kts 152°
2026-04-27 22:27 22.06466 39.41380 15393 ft 402 kts 152°
2026-04-27 22:27 22.04112 39.42981 14818 ft 399 kts 152°
2026-04-27 22:27 22.01771 39.44573 14230 ft 396 kts 152°
2026-04-27 22:27 21.99317 39.45796 13644 ft 384 kts 169°
2026-04-27 22:28 21.96700 39.46038 13056 ft 374 kts 188°
2026-04-27 22:28 21.94226 39.45322 12467 ft 366 kts 207°
2026-04-27 22:28 21.92167 39.43774 11932 ft 360 kts 225°
2026-04-27 22:28 21.90713 39.41610 11340 ft 358 kts 242°
2026-04-27 22:29 21.89636 39.39202 10774 ft 355 kts 244°
2026-04-27 22:29 21.88599 39.36856 10632 ft 340 kts 244°
2026-04-27 22:29 21.87602 39.34608 10504 ft 325 kts 244°
2026-04-27 22:29 21.86645 39.32457 10381 ft 313 kts 244°
2026-04-27 22:30 21.85721 39.30387 10261 ft 301 kts 244°
2026-04-27 22:30 21.84826 39.28386 10122 ft 291 kts 244°
2026-04-27 22:30 21.83958 39.26449 9961 ft 284 kts 244°
2026-04-27 22:30 21.83048 39.24558 9490 ft 286 kts 235°
2026-04-27 22:31 21.81561 39.23162 9053 ft 288 kts 206°
2026-04-27 22:31 21.79598 39.22771 8617 ft 293 kts 175°
2026-04-27 22:31 21.77635 39.23358 8178 ft 294 kts 162°
2026-04-27 22:31 21.75711 39.24111 7746 ft 295 kts 161°
2026-04-27 22:32 21.73789 39.24879 7310 ft 294 kts 161°
2026-04-27 22:32 21.71868 39.25650 6874 ft 294 kts 161°
2026-04-27 22:32 21.69954 39.26413 6473 ft 292 kts 161°
2026-04-27 22:32 21.68049 39.27171 6066 ft 291 kts 161°
2026-04-27 22:33 21.66156 39.27924 5665 ft 289 kts 161°
2026-04-27 22:33 21.64297 39.28661 5275 ft 287 kts 161°
2026-04-27 22:33 21.62425 39.29401 4874 ft 286 kts 161°
2026-04-27 22:33 21.60560 39.30136 4479 ft 284 kts 161°
2026-04-27 22:34 21.58705 39.30863 4084 ft 282 kts 161°
2026-04-27 22:34 21.56876 39.31579 3698 ft 279 kts 161°
2026-04-27 22:34 21.55064 39.32288 3313 ft 276 kts 161°
2026-04-27 22:34 21.53277 39.32988 3036 ft 269 kts 161°
2026-04-27 22:35 21.51572 39.33656 3015 ft 252 kts 161°
2026-04-27 22:35 21.49977 39.34280 3015 ft 238 kts 160°
2026-04-27 22:35 21.48433 39.34885 3017 ft 235 kts 161°
2026-04-27 22:35 21.46898 39.35485 3018 ft 234 kts 161°
2026-04-27 22:36 21.45365 39.36087 3021 ft 234 kts 160°
2026-04-27 22:36 21.43836 39.36688 3026 ft 234 kts 161°
2026-04-27 22:36 21.42308 39.37288 3030 ft 234 kts 161°
2026-04-27 22:36 21.40780 39.37889 3032 ft 234 kts 160°
2026-04-27 22:37 21.39251 39.38489 3035 ft 234 kts 160°
2026-04-27 22:37 21.37735 39.39084 3036 ft 226 kts 161°
2026-04-27 22:37 21.36266 39.39381 3030 ft 214 kts 187°
2026-04-27 22:37 21.34911 39.38908 3055 ft 197 kts 215°
2026-04-27 22:38 21.34008 39.37928 3041 ft 177 kts 241°
2026-04-27 22:38 21.33554 39.36777 3039 ft 162 kts 252°
2026-04-27 22:38 21.33172 39.35662 3039 ft 158 kts 252°
2026-04-27 22:38 21.32788 39.34552 3040 ft 156 kts 252°
2026-04-27 22:39 21.32418 39.33477 3040 ft 156 kts 251°
2026-04-27 22:39 21.32041 39.32390 3041 ft 155 kts 252°
2026-04-27 22:39 21.31909 39.31259 3034 ft 153 kts 281°
2026-04-27 22:39 21.32295 39.30213 3038 ft 152 kts 308°
2026-04-27 22:40 21.33096 39.29500 3034 ft 152 kts 339°
2026-04-27 22:40 21.34088 39.29115 3047 ft 152 kts 338°
2026-04-27 22:40 21.35077 39.28715 3041 ft 152 kts 339°
2026-04-27 22:40 21.36066 39.28322 3057 ft 152 kts 339°
2026-04-27 22:41 21.37036 39.27939 3049 ft 147 kts 339°
2026-04-27 22:41 21.37984 39.27566 3038 ft 144 kts 339°
2026-04-27 22:41 21.38924 39.27196 3030 ft 144 kts 339°
2026-04-27 22:41 21.39860 39.26828 3026 ft 143 kts 338°
2026-04-27 22:42 21.40794 39.26461 3026 ft 143 kts 339°
2026-04-27 22:42 21.41733 39.26092 3027 ft 143 kts 339°
2026-04-27 22:42 21.42669 39.25724 3026 ft 143 kts 339°
2026-04-27 22:42 21.43609 39.25355 3024 ft 144 kts 339°
2026-04-27 22:43 21.44547 39.24986 3024 ft 144 kts 339°
2026-04-27 22:43 21.45486 39.24616 3018 ft 143 kts 338°
2026-04-27 22:43 21.46426 39.24246 2864 ft 144 kts 339°
2026-04-27 22:43 21.47362 39.23878 2674 ft 143 kts 339°
2026-04-27 22:44 21.48292 39.23513 2485 ft 142 kts 339°
2026-04-27 22:44 21.49216 39.23149 2302 ft 141 kts 339°
2026-04-27 22:44 21.50146 39.22783 2108 ft 143 kts 339°
2026-04-27 22:44 21.50761 39.22542 1982 ft 142 kts 339°
2026-04-27 22:45 21.51687 39.22177 1793 ft 141 kts 339°
2026-04-27 22:45 21.52610 39.21814 1610 ft 141 kts 339°
2026-04-27 22:45 21.53530 39.21452 1421 ft 141 kts 339°
2026-04-27 22:45 21.54454 39.21089 1353 ft 145 kts 342°
2026-04-27 22:46 21.55424 39.20707 1249 ft 149 kts 340°
2026-04-27 22:46 21.56359 39.20338 1199 ft 141 kts 340°
2026-04-27 22:46 21.57273 39.19978 1197 ft 139 kts 341°
2026-04-27 22:46 21.58182 39.19620 1197 ft 139 kts 340°
2026-04-27 22:47 21.59089 39.19263 1198 ft 139 kts 340°
2026-04-27 22:47 21.59993 39.18907 1198 ft 138 kts 341°
2026-04-27 22:47 21.60897 39.18551 1187 ft 139 kts 340°
2026-04-27 22:47 21.61806 39.18193 1003 ft 138 kts 341°
2026-04-27 22:48 21.62707 39.17837 818 ft 138 kts 341°
2026-04-27 22:48 21.63606 39.17484 638 ft 137 kts 341°
2026-04-27 22:48 21.64505 39.17131 412 ft 137 kts 340°
2026-04-27 22:48 21.65400 39.16770 215 ft 137 kts 340°
2026-04-27 22:49 21.66296 39.16414 49 ft 135 kts 340°
2026-04-27 22:49 21.66902 39.16178 34 ft 28 kts 340°
2026-04-27 22:49 21.67024 39.16132 33 ft 28 kts 341°
2026-04-27 22:49 21.67271 39.16031 30 ft 48 kts 340°
2026-04-27 22:50 21.67511 39.15996 30 ft 32 kts
2026-04-27 22:50 21.67628 39.16075 29 ft 12 kts 100°
2026-04-27 22:50 21.67627 39.16080 29 ft 0 kts 99°
2026-04-27 22:51 21.67626 39.16083 29 ft 4 kts 99°
2026-04-27 22:51 21.67636 39.16190 30 ft 21 kts 52°
2026-04-27 22:51 21.67694 39.16351 30 ft 25 kts 73°
2026-04-27 22:52 21.67761 39.16532 30 ft 27 kts 64°
2026-04-27 22:52 21.67745 39.16612 30 ft 3 kts 177°
2026-04-27 22:52 21.67683 39.16643 30 ft 18 kts 160°
2026-04-27 22:52 21.67559 39.16694 31 ft 21 kts 160°
2026-04-27 22:53 21.67394 39.16759 32 ft 32 kts 162°
2026-04-27 22:53 21.67233 39.16752 32 ft 16 kts 231°
2026-04-27 22:53 21.67232 39.16633 32 ft 17 kts 281°
2026-04-27 22:53 21.67274 39.16514 32 ft 18 kts 322°
2026-04-27 22:54 21.67397 39.16461 31 ft 23 kts 339°
2026-04-27 22:54 21.67449 39.16477 29 ft 5 kts 86°
2026-04-27 22:54 21.67431 39.16523 31 ft 10 kts 85°
2026-04-27 22:54 21.67447 39.16549 31 ft 0 kts 66°
2026-04-27 22:55 21.66365 39.17514 36 ft 0 kts 195°